Terminal Aerodrome Forecast
Issued by NWS Quad Cities IA IL

Home | Current Version | Previous Version | Text Only | Print | Product List | Glossary On
Versions: 1 2 3 4 5 6 7 8 9 10 11 12 13 14 15 16 17 18 19
893
FTUS43 KDVN 151134
TAFDBQ
TAF
KDBQ 151134Z 1512/1612 VRB03KT P6SM SCT200
     FM151800 18005KT P6SM BKN150
     FM161000 12005KT 4SM -SN BR OVC010=

USA.gov is the U.S. government's official web portal to all federal, state and local government web resources and services.